Location: Hertford
(51.8000°N, 0.0667°W)
Time: 17:31:00
(UTC+00:00)

Cosmos 1025 Rocket - Pass Details

Date: 18 September 2020
Orbit: 594 x 617 km, 82.5° (Epoch: 30 October)

Event Time Altitude Azimuth Distance (km) Brightness Sun altitude
Rises 18:44:24 0° 355° (N) 2,886 6.7 -6.6°
Reaches altitude 10° 18:46:49 10° 5° (N) 1,980 5.7 -6.9°
Maximum altitude 18:50:48 33° 70° (ENE) 1,040 3.8 -7.5°
Drops below altitude 10° 18:54:46 10° 136° (SE) 1,977 5.1 -8.1°
Enters shadow 18:56:10 - 142° (SE) 2,494 5.7 -8.3°
